Regional Weather Roundup
Issued by NWS Sioux Falls, SD

Home | Current Version | Previous Version | Graphics & Text | Print | Product List | Glossary On
Versions: 1 2 3 4 5 6 7 8 9 10 11 12 13 14 15 16 17 18 19 20 21 22 23 24 25 26 27 28 29 30 31 32 33 34 35 36 37 38 39 40 41 42 43 44 45 46 47 48 49 50
000
ASUS43 KFSD 292210
RWRFSD

WEATHER ROUNDUP FOR SE SOUTH DAKOTA/SW MINNESOTA/NW IOWA
NATIONAL WEATHER SERVICE SIOUX FALLS SD
500 PM CDT SUN MAY 29 2016

NOTE: "FAIR" INDICATES FEW OR NO CLOUDS BELOW 12,000 FEET WITH NO
SIGNIFICANT WEATHER AND OR OBSTRUCTIONS TO VISIBILITY.


SDZ038>040-050-052>070-292300-
SOUTHEAST SOUTH DAKOTA

CITY           SKY/WX    TMP DP  RH WIND       PRES   REMARKS
BROOKINGS      SUNNY     76  50  40 NW16      30.02F
CHAMBERLAIN    SUNNY     78  57  47 SE5       30.02F
HURON          SUNNY     78  50  37 SW7       30.00F
MADISON        FAIR      73  50  43 N8        30.04F
MITCHELL       SUNNY     79  49  34 NE3       30.02F
SIOUX FALLS    MOSUNNY   79  50  36 NW8       30.02F
WINNER         FAIR      78  55  44 SE10      30.02F
YANKTON        SUNNY     79  55  44 N3        30.01F
$$

MNZ071-072-080-081-089-090-097-098-292300-
SOUTHWEST MINNESOTA

CITY           SKY/WX    TMP DP  RH WIND       PRES   REMARKS
FAIRMONT       MOSUNNY   79  52  38 W16G25    29.98F
JACKSON        SUNNY     79  41  25 W17       30.01F
LUVERNE        SUNNY     75  43  31 NW10      30.03F
MARSHALL       MOSUNNY   78  47  33 NW22      29.98F
MONTEVIDEO     SUNNY     82  45  26 N16G24    29.98S
PIPESTONE      SUNNY     77  39  25 NW10G16   30.03S
REDWOOD FALLS  MOSUNNY   79  48  33 W16G23    29.96F
TRACY          SUNNY     79  49  35 NW13G22   30.00F
WINDOM         SUNNY     79  45  29 W18G26    30.00S
WORTHINGTON    SUNNY     76  48  37 NW15      30.03
$$

IAZ001>003-012>014-020>022-031-032-NEZ013-014-SDZ071-292300-
NORTHWEST IOWA

CITY           SKY/WX    TMP DP  RH WIND       PRES   REMARKS
CHEROKEE       MOSUNNY   78  58  49 NW8       30.02F
DENISON        MOSUNNY   81  54  39 NW9       30.00F
ESTHERVILLE    SUNNY     76  57  51 W17       30.01F
LE MARS        MOSUNNY   79  57  47 NW9G18    30.03S
ORANGE CITY    SUNNY     77  57  50 NW10G16   30.04S
SHELDON        SUNNY     77  48  36 NW13      30.02S
SIOUX CITY     SUNNY     82  59  45 NW7       30.01F
SPENCER        MOSUNNY   78  55  44 NW13G22   30.02F
STORM LAKE       N/A     81  55  41 NW15G21   30.03F
$$

ABBREVIATIONS USED IN REMARKS
   TC - TEMPERATURE IN CELSIUS
  WCI - WIND CHILL INDEX
   HX - HEAT INDEX
  VSB - VISIBILITY




USA.gov is the U.S. government's official web portal to all federal, state and local government web resources and services.